Overview Statistics Trail Chart Weather Telemetry Raw packets
 

This is the latest recevied weather packets stored in our database for station/object EA1GHG-11. If no packets are shown the sender has not sent any weather packets the latest 10 day(s).

<< 8 9 10 11 12 13 14 >>
Time Temp. Humidity Pressure Rain* Wind** Luminosity Snow
1788248068 12.78° C 100% 1025.1 hPa - - - -
1788246568 12.22° C 100% 1024.9 hPa - - - -
1788245154 11.67° C 100% 1024.7 hPa - - - -
1788245068 11.67° C 100% 1024.7 hPa - - - -
1788244277 11.11° C 100% 1024.6 hPa - - - -
1788243567 11.11° C 100% 1024.7 hPa - - - -
1788242067 11.11° C 100% 1024.7 hPa - - - -
1788240567 11.11° C 100% 1024.6 hPa - - - -
1788239067 11.11° C 100% 1024.5 hPa - - - -
1788237567 11.11° C 100% 1024.5 hPa - - - -
1788236067 11.11° C 100% 1024.5 hPa - - - -
1788234567 11.11° C 100% 1024.4 hPa - - - -
1788233066 11.67° C 100% 1024.5 hPa - - - -
1788231566 12.22° C 100% 1024.5 hPa - - - -
1788230099 12.78° C 100% 1024.5 hPa - - - -
1788230066 12.78° C 100% 1024.5 hPa - - - -
1788208465 17.22° C 100% 1025 hPa - - - -
1788207543 17.22° C 100% 1025 hPa - - - -
1788207507 17.22° C 100% 1025 hPa - - - -
1788207479 17.78° C 100% 1025.1 hPa - - - -
1788207446 17.78° C 100% 1025.1 hPa - - - -
1788207321 17.78° C 100% 1025.1 hPa - - - -
1788206222 18.33° C 100% 1024.6 hPa - - - -
1788190623 23.89° C 76% 1023.9 hPa - - - -
1788189123 23.89° C 90% 1024.1 hPa - - - -

* Rain since midnight (hover to see other rain measurements)
** Current wind speed in m/s (hover to see current wind gust speed)